User: anonymous   Login
Location: Norwich
(52.6280°N, 1.3030°E)
Time: 23:31:27
(UTC+01:00)
Language:

APEX - Orbit

View from above orbital plane
View from above orbital plane
View from above satellite
View from above satellite

Ground track
Ground track

The orbit data is extracted from the following two-line orbital elements,

1 23191U 94046A   17230.95734826  .00012182  00000-0  40581-3 0  9991
2 23191  69.9223  74.1521 0600575 158.9570 203.7455 14.38556434125587
Epoch (UTC): 18 August 2017 22:58:34
Eccentricity: 0.0600575
inclination: 69.9223°
perigee height: 334 km
apogee height: 1192 km
right ascension of ascending node: 74.1521°
argument of perigee: 158.9570°
revolutions per day: 14.38556434
mean anomaly at epoch: 203.7455°
orbit number at epoch: 12558

The dashed part of the orbit path shows where the satellite is in the earth's shadow,  

DLR